SAS77K ENGM-EKCH

Flight info

Callsign SAS77K
Flight time N/A
Altitude 37000
Route OKSAT L996 KELIN DCT TOPLA L996 ERNOV
Aircraft A320/M-SDE3FGHIRWY/LB1

Departure

Time N/A
Airport Oslo-Gardermoen International Airport (ENGM)

Arrival

Time 2026-05-03 20:38
Airport Copenhagen Kastrup Airport (EKCH)
Time Latitude Longitude Altitude Speed Heading
2026-05-03 20:15 57.28110 12.35369 31012 ft 412 kts 180°
2026-05-03 20:15 57.25245 12.35947 30417 ft 408 kts 180°
2026-05-03 20:15 57.22466 12.36505 29828 ft 404 kts 179°
2026-05-03 20:15 57.19664 12.37066 29216 ft 400 kts 179°
2026-05-03 20:16 57.16933 12.37611 28628 ft 397 kts 179°
2026-05-03 20:16 57.14205 12.38155 28019 ft 394 kts 179°
2026-05-03 20:16 57.11481 12.38694 27436 ft 391 kts 179°
2026-05-03 20:16 57.08772 12.39228 26823 ft 388 kts 179°
2026-05-03 20:17 57.06109 12.39756 26214 ft 385 kts 179°
2026-05-03 20:17 57.03474 12.40278 25631 ft 383 kts 179°
2026-05-03 20:17 57.00811 12.40803 25030 ft 380 kts 179°
2026-05-03 20:17 56.98189 12.41323 24459 ft 377 kts 179°
2026-05-03 20:18 56.95609 12.41828 23892 ft 374 kts 179°
2026-05-03 20:18 56.93050 12.42332 23340 ft 372 kts 179°
2026-05-03 20:18 56.90465 12.42842 22785 ft 369 kts 178°
2026-05-03 20:18 56.87948 12.43335 22251 ft 367 kts 178°
2026-05-03 20:19 56.85457 12.43824 21752 ft 364 kts 178°
2026-05-03 20:19 56.82968 12.44312 21258 ft 362 kts 178°
2026-05-03 20:19 56.80485 12.44797 20770 ft 359 kts 178°
2026-05-03 20:19 56.78123 12.45258 20289 ft 357 kts 178°
2026-05-03 20:20 56.75757 12.45720 19817 ft 355 kts 178°
2026-05-03 20:20 56.73331 12.46193 19591 ft 353 kts 178°
2026-05-03 20:20 56.70864 12.46670 19411 ft 354 kts 178°
2026-05-03 20:20 56.68435 12.47144 19237 ft 353 kts 178°
2026-05-03 20:21 56.65973 12.47622 19060 ft 352 kts 178°
2026-05-03 20:21 56.63543 12.48092 18878 ft 351 kts 178°
2026-05-03 20:21 56.61142 12.48556 18529 ft 347 kts 178°
2026-05-03 20:21 56.58748 12.49020 18020 ft 346 kts 178°
2026-05-03 20:22 56.56378 12.49477 17547 ft 344 kts 178°
2026-05-03 20:22 56.53987 12.49939 17082 ft 342 kts 178°
2026-05-03 20:22 56.51635 12.50390 16617 ft 340 kts 178°
2026-05-03 20:22 56.49273 12.50844 16157 ft 338 kts 178°
2026-05-03 20:23 56.46964 12.51287 15717 ft 336 kts 178°
2026-05-03 20:23 56.44643 12.51732 15262 ft 334 kts 178°
2026-05-03 20:23 56.42347 12.52173 14832 ft 332 kts 177°
2026-05-03 20:23 56.40049 12.52634 14388 ft 329 kts 177°
2026-05-03 20:24 56.37792 12.53100 13949 ft 327 kts 177°
2026-05-03 20:24 56.35521 12.53568 13497 ft 326 kts 177°
2026-05-03 20:24 56.33299 12.54024 13085 ft 323 kts 177°
2026-05-03 20:24 56.31057 12.54482 12645 ft 322 kts 177°
2026-05-03 20:25 56.28840 12.54935 12220 ft 319 kts 177°
2026-05-03 20:25 56.26634 12.55384 11802 ft 317 kts 176°
2026-05-03 20:25 56.24446 12.55829 11369 ft 315 kts 176°
2026-05-03 20:25 56.22284 12.56269 11011 ft 311 kts 176°
2026-05-03 20:26 56.20160 12.56703 10846 ft 302 kts 176°
2026-05-03 20:26 56.18100 12.57088 10666 ft 291 kts 180°
2026-05-03 20:26 56.16134 12.56913 10488 ft 279 kts 191°
2026-05-03 20:26 56.14258 12.56173 10308 ft 270 kts 197°
2026-05-03 20:27 56.12465 12.55329 10017 ft 267 kts 197°
2026-05-03 20:27 56.10682 12.54478 9655 ft 266 kts 197°
2026-05-03 20:27 56.08875 12.53614 9312 ft 264 kts 197°
2026-05-03 20:27 56.07100 12.52839 8957 ft 265 kts 190°
2026-05-03 20:28 56.05272 12.53279 8556 ft 274 kts 158°
2026-05-03 20:28 56.03675 12.55170 8258 ft 276 kts 148°
2026-05-03 20:28 56.02128 12.57192 7914 ft 274 kts 149°
2026-05-03 20:28 56.00559 12.59170 7573 ft 273 kts 150°
2026-05-03 20:29 55.99148 12.60887 7279 ft 271 kts 151°
2026-05-03 20:29 55.97581 12.62778 6927 ft 270 kts 150°
2026-05-03 20:29 55.96009 12.64665 6579 ft 269 kts 150°
2026-05-03 20:29 55.94463 12.66522 6253 ft 268 kts 151°
2026-05-03 20:30 55.92892 12.68385 5930 ft 266 kts 152°
2026-05-03 20:30 55.91338 12.70217 5603 ft 264 kts 151°
2026-05-03 20:30 55.89817 12.72001 5415 ft 257 kts 151°
2026-05-03 20:30 55.88359 12.73711 5263 ft 250 kts 152°
2026-05-03 20:31 55.86917 12.75411 5109 ft 242 kts 151°
2026-05-03 20:31 55.85517 12.77063 4957 ft 235 kts 151°
2026-05-03 20:31 55.84181 12.78642 4802 ft 226 kts 151°
2026-05-03 20:31 55.82908 12.80154 4580 ft 215 kts 152°
2026-05-03 20:32 55.81691 12.81608 4361 ft 204 kts 151°
2026-05-03 20:32 55.80569 12.82954 4273 ft 184 kts 152°
2026-05-03 20:32 55.79445 12.83982 3857 ft 180 kts 162°
2026-05-03 20:32 55.78260 12.84633 3409 ft 178 kts 172°
2026-05-03 20:33 55.77032 12.84971 3038 ft 176 kts 178°
2026-05-03 20:33 55.75816 12.85045 2858 ft 175 kts 182°
2026-05-03 20:33 55.74624 12.84762 2727 ft 174 kts 201°
2026-05-03 20:33 55.73560 12.83719 2622 ft 173 kts 214°
2026-05-03 20:34 55.72612 12.82384 2549 ft 174 kts 220°
2026-05-03 20:34 55.71701 12.80944 2421 ft 175 kts 221°
2026-05-03 20:34 55.70796 12.79511 2184 ft 175 kts 220°
2026-05-03 20:34 55.69891 12.78099 1944 ft 173 kts 220°
2026-05-03 20:35 55.68985 12.76701 1704 ft 170 kts 219°
2026-05-03 20:35 55.68118 12.75364 1471 ft 160 kts 220°
2026-05-03 20:35 55.67291 12.74092 1276 ft 151 kts 220°
2026-05-03 20:35 55.66525 12.72912 1080 ft 141 kts 220°
2026-05-03 20:36 55.65797 12.71790 892 ft 140 kts 222°
2026-05-03 20:36 55.65062 12.70657 707 ft 139 kts 221°
2026-05-03 20:36 55.64340 12.69535 517 ft 139 kts 222°
2026-05-03 20:36 55.63615 12.68392 311 ft 139 kts 221°
2026-05-03 20:37 55.62876 12.67262 139 ft 141 kts 222°
2026-05-03 20:37 55.62149 12.66141 25 ft 131 kts 223°
2026-05-03 20:37 55.61593 12.65280 25 ft 81 kts 222°
2026-05-03 20:37 55.61293 12.64735 27 ft 52 kts 242°
2026-05-03 20:38 55.61197 12.64316 26 ft 18 kts 253°
2026-05-03 20:38 55.61222 12.64127 27 ft 16 kts 329°
2026-05-03 20:38 55.61326 12.64164 27 ft 15 kts 31°
2026-05-03 20:38 55.61415 12.64262 27 ft 15 kts 34°
2026-05-03 20:39 55.61510 12.64359 27 ft 16 kts 29°
2026-05-03 20:39 55.61605 12.64479 26 ft 16 kts 38°
2026-05-03 20:39 55.61703 12.64586 27 ft 16 kts 33°
2026-05-03 20:39 55.61796 12.64700 27 ft 18 kts 34°
2026-05-03 20:40 55.61919 12.64836 25 ft 21 kts 30°
2026-05-03 20:40 55.62046 12.64972 25 ft 21 kts 37°
2026-05-03 20:40 55.62157 12.65117 29 ft 18 kts 35°
2026-05-03 20:40 55.62260 12.65123 26 ft 12 kts 316°
2026-05-03 20:41 55.62311 12.64992 26 ft 13 kts 300°
2026-05-03 20:41 55.62369 12.64819 26 ft 22 kts 302°
2026-05-03 20:41 55.62440 12.64623 26 ft 13 kts 303°
2026-05-03 20:41 55.62472 12.64533 26 ft 9 kts 304°
2026-05-03 20:42 55.62533 12.64377 26 ft 16 kts 305°
2026-05-03 20:42 55.62624 12.64286 26 ft 13 kts 14°
2026-05-03 20:42 55.62678 12.64337 26 ft 4 kts 57°
2026-05-03 20:42 55.62676 12.64402 26 ft 6 kts 101°
2026-05-03 20:43 55.62672 12.64433 26 ft 0 kts 101°